GW2085 Weather Reports


Display with metric or nautical units.
time (UTC)temp
F
wind
direction
speed
MPH
gust
MPH
rain 1hr
in
rain 24hr
in
rain mn
in
humidity
%
barometer
mb
20260904090108 57 0 0.0 0.0 0.00 0.00 0.00 90 1012.3
20260904084556 58 0 0.0 0.0 0.00 0.00 0.00 90 1012.5
20260904083056 58 0 0.0 0.0 0.00 0.00 0.00 89 1012.6
20260904081601 58 0 0.0 0.0 0.00 0.00 0.00 89 1012.7
20260904080058 58 0 0.0 0.0 0.00 0.00 0.00 89 1012.8
20260904074559 58 0 0.0 0.0 0.00 0.00 0.00 88 1012.9
20260904073054 59 0 0.0 0.0 0.00 0.00 0.00 88 1012.8
20260904071608 59 0 0.0 0.0 0.00 0.00 0.00 87 1012.8
20260904070059 59 0 0.0 0.0 0.00 0.00 0.00 87 1012.7
20260904064556 60 0 0.0 0.0 0.00 0.00 0.00 86 1012.7
20260904063101 60 0 0.0 0.0 0.00 0.00 0.00 86 1012.6
20260904061556 60 0 0.0 0.0 0.00 0.00 0.00 85 1012.8
20260904054554 61 0 0.0 0.0 0.00 0.00 0.00 84 1012.6
20260904053105 61 0 0.0 0.0 0.00 0.00 0.00 84 1012.5
20260904051557 62 0 0.0 0.0 0.00 0.00 0.00 84 1012.7
20260904050055 62 0 0.0 0.0 0.00 0.00 0.00 83 1012.8
20260904044603 62 0 0.0 0.0 0.00 0.00 0.00 82 1012.7
20260904043107 63 0 0.0 0.0 0.00 0.00 0.00 81 1012.7
20260904041601 63 0 0.0 0.0 0.00 0.00 0.00 80 1012.7
20260904040055 64 0 0.0 0.0 0.00 0.00 0.00 79 1013.0
20260904034556 64 0 0.0 0.0 0.00 0.00 0.00 78 1012.9
20260904033057 65 0 0.0 1.0 0.00 0.00 0.00 77 1012.6
20260904031556 66 0 0.0 1.0 0.00 0.00 0.00 76 1012.4
20260904030059 66 0 0.0 3.0 0.00 0.00 0.00 75 1012.4
20260904024600 67 0 0.0 4.0 0.00 0.00 0.00 74 1012.3
20260904023055 68 0 0.0 2.0 0.00 0.00 0.00 73 1012.3
20260904021600 69 257 0.0 3.0 0.00 0.00 0.00 70 1012.2
20260904020101 70 263 2.0 4.0 0.00 0.00 0.00 67 1012.2
20260904014604 71 201 2.0 5.0 0.00 0.00 0.00 65 1012.3
20260904013114 73 264 1.0 5.0 0.00 0.00 0.00 61 1012.4
20260904011602 74 265 2.0 7.0 0.00 0.00 0.00 61 1012.3
20260904010056 75 207 4.0 6.0 0.00 0.00 0.00 59 1012.4
20260904004609 76 272 2.0 7.0 0.00 0.00 0.00 58 1012.3
20260904003055 77 244 2.0 6.0 0.00 0.00 0.00 56 1012.3
20260904001607 76 210 2.0 8.0 0.00 0.00 0.00 57 1012.3
20260904000103 77 205 3.0 9.0 0.00 0.00 0.00 56 1012.4
20260903234558 79 217 1.0 6.0 0.00 0.00 0.00 55 1012.2
20260903233056 80 275 4.0 8.0 0.00 0.00 0.00 52 1012.3
20260903231606 80 226 2.0 7.0 0.00 0.00 0.00 52 1012.4
20260903230058 81 89 3.0 9.0 0.00 0.00 0.00 51 1012.4
20260903224554 81 213 2.0 10.0 0.00 0.00 0.00 50 1012.5
20260903223104 82 237 2.0 7.0 0.00 0.00 0.00 46 1012.6
20260903221559 82 276 2.0 8.0 0.00 0.00 0.00 46 1012.7
20260903220106 82 177 3.0 8.0 0.00 0.00 0.00 47 1012.8
20260903214553 81 264 4.0 13.0 0.00 0.00 0.00 50 1012.8
20260903213058 82 264 1.0 8.0 0.00 0.00 0.00 51 1012.9
20260903211606 83 279 3.0 7.0 0.00 0.00 0.00 49 1012.9
20260903210100 84 196 3.0 7.0 0.00 0.00 0.00 49 1012.9
20260903204558 84 302 2.0 7.0 0.00 0.00 0.00 47 1012.9
20260903203058 83 212 3.0 8.0 0.00 0.00 0.00 47 1012.9
20260903201556 82 314 3.0 11.0 0.00 0.00 0.00 50 1013.1
20260903200058 83 158 2.0 12.0 0.00 0.00 0.00 48 1013.2
20260903194559 83 207 4.0 10.0 0.00 0.00 0.00 48 1013.2
20260903193104 84 259 3.0 10.0 0.00 0.00 0.00 44 1013.3
20260903191554 85 268 1.0 5.0 0.00 0.00 0.00 36 1013.4
20260903190104 84 257 2.0 8.0 0.00 0.00 0.00 35 1013.7
20260903184600 83 0 1.0 5.0 0.00 0.00 0.00 34 1014.0
20260903183056 83 240 2.0 5.0 0.00 0.00 0.00 31 1014.4
20260903181553 82 162 2.0 5.0 0.00 0.00 0.00 30 1014.6
20260903180108 81 82 0.0 4.0 0.00 0.00 0.00 35 1014.6
20260903174557 79 234 1.0 3.0 0.00 0.00 0.00 42 1014.6
20260903173055 77 209 3.0 5.0 0.00 0.00 0.00 44 1014.6
20260903171613 76 195 1.0 3.0 0.00 0.00 0.00 53 1014.7
20260903170057 74 145 2.0 5.0 0.00 0.00 0.00 54 1014.8
20260903164604 74 224 1.0 4.0 0.00 0.00 0.00 56 1014.7
20260903163102 72 0 1.0 3.0 0.00 0.00 0.00 58 1014.9
20260903161559 69 256 1.0 3.0 0.00 0.00 0.00 66 1015.0
20260903160105 67 208 0.0 2.0 0.00 0.00 0.00 69 1015.0
20260903154605 64 154 0.0 2.0 0.00 0.00 0.00 72 1015.2
20260903153108 62 0 0.0 2.0 0.00 0.00 0.00 76 1015.3
20260903151612 59 164 1.0 2.0 0.00 0.00 0.00 81 1015.2
20260903150107 57 162 0.0 0.0 0.00 0.00 0.00 86 1015.3
20260903144559 55 0 0.0 3.0 0.00 0.00 0.00 90 1015.4
20260903143102 55 0 0.0 1.0 0.00 0.00 0.00 92 1015.2
20260903141555 54 0 0.0 0.0 0.00 0.00 0.00 92 1015.0
20260903140105 53 0 0.0 0.0 0.00 0.00 0.00 92 1014.9
20260903134610 53 0 0.0 0.0 0.00 0.00 0.00 92 1014.6
20260903133059 53 0 0.0 0.0 0.00 0.00 0.00 92 1014.6
20260903131603 53 0 0.0 0.0 0.00 0.00 0.00 92 1014.4
20260903124608 53 0 0.0 0.0 0.00 0.00 0.00 92 1014.4
20260903123105 53 0 0.0 0.0 0.00 0.00 0.00 92 1014.4
20260903121554 53 0 0.0 0.0 0.00 0.00 0.00 91 1014.2
20260903120106 54 0 0.0 0.0 0.00 0.00 0.00 91 1014.2
20260903114558 54 0 0.0 0.0 0.00 0.00 0.00 91 1014.2
20260903113058 54 0 0.0 0.0 0.00 0.00 0.00 91 1014.4
20260903111554 54 0 0.0 0.0 0.00 0.00 0.00 91 1014.4
20260903110059 55 0 0.0 0.0 0.00 0.00 0.00 91 1014.5
20260903104604 55 0 0.0 0.0 0.00 0.00 0.00 90 1014.1
20260903103058 55 0 0.0 0.0 0.00 0.00 0.00 91 1014.2
20260903101557 55 0 0.0 0.0 0.00 0.00 0.00 90 1014.3
20260903100055 56 0 0.0 0.0 0.00 0.00 0.00 90 1014.6
20260903094608 56 0 0.0 0.0 0.00 0.00 0.00 90 1014.7
20260903093103 56 0 0.0 0.0 0.00 0.00 0.00 90 1014.8
20260903091556 56 0 0.0 0.0 0.00 0.00 0.00 90 1014.9